Location: Newark
(45.4422°N, 16.2769°E)
Time: 22:54:39
(UTC+00:00)

Courier 1B Rocket - Pass Details

Date: 12 December 2019
Orbit: 920 x 1202 km, 28.2° (Epoch: 20 January)

Event Time Altitude Azimuth Distance (km) Brightness Sun altitude
Rises 06:13:42 0° 237° (WSW) 3,801 7.8 -2.5°
Reaches altitude 10° 06:17:30 10° 218° (SW) 2,789 7.3 -2.0°
Maximum altitude 06:21:36 17° 180° (S) 2,258 7.4 -1.4°
Drops below altitude 10° 06:25:34 10° 142° (SE) 2,680 8.9 -0.8°
Sets 06:29:06 0° 123° (ESE) 3,589 12.8 -0.3°
